Volver al catálogo

STARLINK-32469

ActivoComunicacionesVLEO
NORAD 61721·PAYLOAD·🇺🇸 United States

Lanzado Oct 30, 2024 desde Cape Canaveral Space Force Station

Loading…

Próximos Pases (próximas 24 horas)

TLE

ActualizadoSource: CelesTrak SupGP

Época: Sep 15, 2026, 03:18 UTC

1 61721C 24196Q   26258.13798611  .00020587  00000+0  60822-3 0  2588
2 61721  53.1566 299.0889 0001173  89.9801 289.6788 15.34382497    12

Sigue STARLINK-32469 en tiempo real con AllMySat

Download on the App Store